Wind_Speed
9 9 8 7 7 7 7 6 7 8 7 7 6 6 5 5 5 5 5 4 4 3 3 4 4 5 5 5 9 6 6 7 7 6 6 13 21 18 10 15 9 8 8 15 29 33 32
8 9 9 8 7 8 7 7 7 7 7 7 7 6 6 5 5 5 5 4 3 3 3 3 4 5 4 5 5 6 4 7 7 6 3 10 17 17 15 20 5 9 13 5 14 10 11
8 8 8 8 8 7 7 7 7 7 7 7 7 6 6 5 6 6 4 4 4 2 2 2 3 5 7 10 0 8 5 5 7 4 11 15 14 16 21 11 18 13 9 1 18 9 6
7 8 8 8 8 8 7 8 7 7 7 6 6 6 5 6 6 6 4 3 2 2 2 2 2 4 8 2 4 7 8 7 5 5 11 13 13 16 14 18 23 13 6 2 9 16 13
7 7 8 8 8 8 8 7 8 7 7 6 6 6 5 5 6 5 4 2 1 1 2 3 2 3 8 8 15 14 9 9 8 9 8 10 10 12 18 7 7 4 5 3 1 13 11
8 7 7 8 8 8 8 8 7 7 7 7 6 5 5 5 5 4 2 2 1 3 3 5 5 5 12 12 13 10 10 10 11 8 13 13 8 5 7 4 6 8 7 3 3 1 7
8 7 7 7 7 7 8 9 8 7 7 6 6 6 5 4 4 2 2 0 4 2 7 11 5 7 4 5 8 11 10 9 10 10 6 15 3 7 13 10 10 8 7 8 7 7 3
8 8 7 7 7 7 8 9 8 7 7 6 6 6 4 4 2 2 3 2 10 7 8 16 16 21 6 1 6 9 10 9 11 7 11 6 7 13 11 9 10 11 6 9 8 8 5
8 8 7 7 7 7 8 8 8 8 7 6 6 5 3 2 0 2 3 6 6 10 5 11 22 15 9 9 11 16 17 17 10 8 10 7 12 12 11 7 7 8 3 7 8 7 8
9 8 8 7 7 8 8 9 9 9 8 6 6 4 2 2 4 1 6 8 7 6 3 5 12 11 16 12 8 18 20 15 7 8 9 8 15 10 11 5 5 5 11 10 9 8 2
9 9 8 8 8 8 9 10 10 9 8 6 6 5 4 6 3 2 6 6 8 2 2 9 9 6 15 9 6 8 19 18 8 9 4 11 9 8 8 7 7 7 7 8 7 9 8
10 10 10 10 10 10 10 10 10 9 8 7 6 6 6 8 6 4 5 7 7 1 5 9 9 8 6 17 10 11 9 10 12 9 10 11 23 8 5 6 6 7 6 8 7 2 4
12 11 11 11 11 12 12 12 11 10 8 7 7 8 9 10 6 1 2 7 1 4 11 8 6 9 9 8 10 8 7 5 4 3 7 10 16 17 8 4 5 8 4 4 5 3 8
13 12 12 12 13 13 14 14 12 10 8 7 7 8 11 12 9 3 4 3 5 8 4 8 9 11 9 9 10 9 9 6 10 9 6 6 12 12 8 9 7 6 3 5 5 4 7
13 13 13 13 13 14 15 15 13 8 7 6 6 8 11 11 14 5 5 4 5 8 12 4 9 8 8 9 5 7 10 9 10 12 8 4 6 6 9 6 9 5 4 9 3 6 5
13 13 14 14 15 15 16 16 13 8 6 6 6 4 9 9 9 9 3 4 6 10 10 10 1 5 5 8 8 5 4 9 8 6 7 5 6 8 8 9 3 6 5 6 4 1 5
13 14 14 15 15 16 16 17 13 8 5 6 7 4 7 17 11 9 4 6 9 20 8 5 10 8 8 2 7 7 6 8 9 7 11 5 3 11 5 4 8 1 4 4 3 5 3
13 14 14 15 16 16 16 17 14 8 3 3 2 4 17 20 9 8 6 6 6 14 9 3 7 9 7 8 6 3 2 8 10 12 4 4 2 4 8 10 7 9 10 8 5 8 3
12 13 14 15 16 16 16 16 15 9 3 2 4 8 14 18 4 7 12 15 22 4 5 2 5 5 7 7 5 7 6 11 9 7 3 5 4 4 12 7 13 7 5 4 3 3 5
12 13 14 15 15 16 16 15 15 10 5 5 5 3 9 19 19 12 12 12 10 8 7 9 5 9 5 4 7 6 6 6 10 10 8 5 2 5 6 8 7 9 13 6 2 3 5
12 14 14 15 15 15 15 14 13 12 5 2 5 5 12 5 11 13 16 13 5 5 7 10 5 5 7 4 7 6 7 7 11 16 6 5 4 7 10 11 13 12 13 10 5 6 1
13 15 15 14 14 14 15 15 12 12 7 3 6 9 16 15 13 15 16 6 8 5 9 6 5 8 7 2 6 7 8 8 8 7 5 5 4 3 5 8 11 11 10 10 13 10 8
12 13 15 14 13 13 13 14 13 10 5 3 14 10 6 12 10 4 4 4 7 9 5 4 7 6 10 9 12 13 14 13 9 4 6 6 4 5 4 9 11 7 8 9 8 7 4
11 12 14 15 14 12 12 13 12 10 8 7 12 7 5 5 8 9 6 11 9 10 5 12 15 5 4 11 13 15 13 13 14 10 12 5 4 1 5 6 7 9 9 8 8 6 9
10 12 13 14 15 14 12 12 11 8 5 5 9 4 6 5 14 14 21 1 5 8 4 7 9 9 14 9 4 6 6 6 7 9 9 9 4 4 4 5 7 8 8 7 6 7 8
9 11 13 14 15 15 14 12 12 9 5 1 7 4 0 6 1 17 18 13 3 4 4 13 12 7 3 5 2 3 4 5 5 5 10 15 10 7 4 5 6 6 9 21 10 5 17
10 11 12 13 15 16 15 14 13 11 8 3 2 10 0 5 5 11 10 7 8 12 4 9 5 6 3 2 3 4 6 7 6 7 7 5 2 2 3 2 4 5 11 19 3 5 18
11 12 12 12 13 14 16 15 14 13 9 4 3 11 6 5 16 10 7 7 11 8 4 8 4 1 2 1 3 4 4 6 4 5 4 4 2 3 2 2 4 14 8 2 5 14 13
13 14 14 13 12 13 13 15 15 13 11 3 3 3 7 7 13 10 11 11 13 11 10 8 9 8 3 3 4 4 3 4 4 3 6 4 2 2 2 2 8 20 16 22 24 20 22
Wind_Direction
332 332 330 326 328 327 327 326 323 325 330 330 327 328 328 326 324 323 318 315 311 302 292 279 275 275 294 282 272 314 235 222 242 261 279 324 322 357 343 338 2 32 337 86 112 126 149
333 330 329 325 324 322 323 322 318 319 325 329 329 329 326 325 325 320 316 310 304 294 287 279 270 275 275 274 333 330 230 216 235 260 288 305 323 348 327 319 357 356 309 83 78 85 122
335 331 326 324 320 319 318 317 315 317 323 325 328 329 324 327 327 318 316 308 305 283 262 265 265 271 257 219 122 323 321 222 231 262 304 323 347 355 320 323 327 293 295 143 137 146 130
337 334 328 322 321 316 315 313 312 314 314 317 322 326 325 326 323 317 316 303 297 273 239 216 242 282 257 310 230 237 251 269 259 230 265 313 326 316 285 287 287 292 299 280 132 146 180
342 339 329 324 322 315 316 312 309 309 312 315 320 323 323 325 322 317 311 287 265 161 200 194 126 314 269 220 239 252 212 230 243 257 270 283 303 293 301 295 318 298 244 341 186 177 149
344 342 332 326 321 318 317 311 307 307 310 314 316 318 317 326 320 313 276 192 178 157 187 209 219 292 240 240 237 207 201 224 234 239 249 246 258 256 286 276 264 296 328 294 22 350 110
346 341 335 330 324 321 316 312 307 306 307 310 312 313 314 324 322 295 198 142 326 241 225 210 206 221 113 187 145 197 201 221 255 256 245 249 219 251 257 268 279 311 335 351 343 322 37
349 345 343 336 330 327 317 315 312 306 304 307 308 307 311 321 311 250 186 338 8 337 297 268 247 255 275 69 209 221 215 212 227 250 246 284 258 243 259 272 313 313 357 322 313 300 341
352 348 351 346 338 329 323 318 313 308 306 302 298 295 300 322 157 165 308 348 0 353 266 268 227 234 229 232 260 236 199 219 242 234 263 238 254 268 267 274 328 321 322 281 268 270 318
355 357 351 349 344 336 328 321 315 308 302 296 287 279 264 146 119 141 310 9 340 327 305 215 199 229 219 210 256 239 191 202 231 252 244 241 264 290 309 296 311 289 299 314 346 23 302
8 5 1 355 350 339 331 324 320 312 300 289 274 261 233 195 194 189 24 338 316 285 316 148 159 168 178 189 96 216 186 195 246 241 238 260 278 297 291 266 276 261 337 326 332 342 347
21 13 9 2 354 346 338 331 323 313 298 281 260 246 224 220 211 36 13 343 299 327 239 167 142 186 189 221 268 100 146 194 229 257 283 273 290 278 253 329 5 331 292 299 307 246 325
21 18 12 7 0 352 344 335 326 313 296 274 249 238 224 216 173 355 306 296 274 228 152 138 171 149 206 185 254 161 166 192 215 218 261 279 258 256 216 273 341 308 329 322 326 340 238
17 16 13 8 1 355 348 340 329 314 291 268 249 238 231 213 188 121 335 306 246 258 219 175 135 159 192 190 218 194 152 209 220 229 275 269 318 223 183 176 187 276 184 167 266 286 272
13 12 10 6 1 357 351 344 334 313 283 258 246 239 238 201 200 167 289 241 240 328 358 106 151 162 196 226 221 175 187 204 217 198 189 270 278 25 150 162 139 266 288 237 283 309 359
11 8 6 4 1 358 353 349 340 315 276 242 215 264 238 179 183 169 237 260 303 317 13 4 298 195 227 213 158 180 240 215 237 250 175 346 359 320 22 84 272 187 237 16 342 307 288
8 5 3 3 0 358 356 354 347 322 267 223 222 258 181 169 149 210 222 242 283 289 48 334 328 336 296 273 192 188 232 248 182 94 73 31 42 295 4 182 211 198 246 237 155 156 190
6 4 2 0 360 358 357 356 352 330 266 213 226 266 167 160 181 218 230 244 240 277 123 274 317 302 322 340 319 172 95 44 56 76 60 45 235 290 272 291 267 221 195 182 132 281 243
4 1 359 358 357 358 357 356 354 336 265 174 258 260 181 177 212 232 238 250 257 352 282 208 242 317 315 327 352 5 48 84 66 66 72 13 339 5 332 333 355 358 341 344 345 35 291
357 358 357 355 355 356 355 354 352 342 306 246 301 252 170 207 240 282 287 265 239 191 301 327 322 351 332 326 323 335 316 142 138 120 132 96 241 217 246 263 304 320 322 329 3 44 308
347 348 352 352 353 356 355 353 350 337 322 232 244 295 326 210 218 235 259 281 204 192 177 274 343 309 305 329 312 293 332 299 151 156 133 127 255 270 288 299 298 304 314 322 300 281 351
339 341 344 348 351 354 358 354 352 340 324 252 306 344 328 304 290 210 234 287 324 232 162 183 208 275 244 289 55 10 7 13 58 343 171 226 256 331 311 312 331 329 334 331 321 321 336
338 347 351 353 352 355 360 1 358 358 0 42 359 310 345 294 315 305 292 206 249 275 20 93 43 41 60 50 8 340 322 323 335 17 337 360 18 17 308 323 324 337 316 316 310 282 269
356 360 4 4 1 357 1 6 9 8 24 37 7 350 315 301 323 326 353 3 51 39 14 4 19 45 45 7 360 344 331 331 328 315 305 296 316 311 258 292 285 258 276 301 313 297 291
3 5 8 10 9 4 3 6 11 14 22 48 5 4 341 307 327 337 351 231 329 340 5 329 311 327 333 354 20 356 342 325 288 271 274 268 244 234 220 244 268 305 292 304 321 309 327
356 5 8 13 14 10 5 4 6 12 18 55 33 342 251 313 109 337 323 347 15 319 276 226 238 245 34 19 359 234 236 263 257 257 244 239 239 205 219 226 255 255 329 352 345 334 357
328 340 352 1 10 12 10 5 4 7 15 58 33 355 300 285 310 2 3 339 342 346 314 347 151 110 186 211 251 246 256 246 251 256 276 321 358 203 257 261 297 24 10 344 348 276 354
297 310 323 336 348 1 9 7 2 3 10 39 61 7 358 291 282 302 326 337 335 322 352 345 359 126 268 197 232 251 247 263 293 265 241 213 261 278 323 342 302 26 30 59 265 346 348
278 286 299 312 327 338 349 0 1 358 1 9 225 288 344 277 251 278 264 263 250 265 304 316 319 322 46 32 22 352 351 354 17 315 360 14 68 241 37 242 0 8 4 7 11 8 9
Height
1530 1529 1528 1527 1525 1524 1524 1523 1522 1521 1520 1519 1519 1518 1517 1517 1516 1515 1515 1514 1514 1514 1513 1513 1512 1512 1512 1512 1509 1507 1506 1507 1508 1509 1508 1504 1502 1500 1500 1495 1494 1494 1492 1497 1498 1504 1506
1530 1528 1527 1526 1525 1524 1523 1522 1522 1521 1520 1519 1519 1518 1517 1517 1516 1515 1514 1514 1513 1513 1513 1513 1512 1512 1513 1513 1507 1508 1507 1508 1508 1508 1508 1506 1507 1504 1501 1498 1495 1494 1491 1495 1497 1500 1497
1529 1528 1526 1525 1524 1523 1522 1521 1521 1520 1519 1519 1518 1517 1517 1516 1515 1515 1514 1513 1513 1513 1513 1512 1512 1512 1512 1510 1508 1507 1507 1508 1509 1508 1508 1509 1508 1509 1506 1500 1495 1494 1495 1490 1495 1497 1500
1529 1527 1526 1524 1523 1522 1522 1521 1520 1519 1519 1518 1517 1517 1516 1515 1514 1514 1513 1513 1513 1512 1512 1512 1512 1512 1509 1506 1508 1509 1509 1508 1509 1509 1510 1510 1510 1509 1506 1501 1496 1495 1493 1502 1490 1495 1498
1528 1527 1525 1524 1523 1521 1521 1520 1519 1518 1518 1517 1517 1516 1515 1515 1514 1514 1513 1512 1512 1512 1512 1512 1513 1513 1509 1507 1506 1506 1508 1509 1509 1510 1510 1511 1511 1509 1504 1503 1508 1496 1514 1500 1492 1484 1492
1527 1526 1524 1523 1522 1521 1520 1519 1518 1518 1517 1517 1516 1515 1515 1514 1514 1513 1512 1512 1512 1512 1512 1512 1513 1516 1506 1503 1502 1503 1506 1508 1509 1509 1510 1511 1510 1511 1506 1510 1535 1514 1508 1496 1497 1486 1484
1526 1525 1524 1523 1521 1520 1519 1518 1517 1517 1516 1516 1515 1515 1515 1514 1513 1513 1513 1513 1515 1514 1512 1507 1506 1501 1500 1502 1502 1504 1506 1508 1508 1508 1511 1506 1516 1523 1508 1499 1495 1495 1497 1502 1490 1482 1486
1526 1525 1524 1523 1521 1520 1519 1518 1517 1516 1516 1515 1515 1514 1514 1514 1513 1513 1513 1513 1514 1516 1510 1503 1503 1503 1503 1502 1503 1504 1506 1508 1508 1512 1506 1511 1520 1501 1495 1492 1494 1496 1500 1505 1492 1483 1485
1526 1525 1524 1522 1521 1520 1519 1517 1516 1516 1515 1515 1514 1514 1514 1513 1513 1514 1514 1514 1513 1513 1510 1498 1497 1499 1501 1503 1501 1500 1503 1505 1506 1510 1508 1516 1504 1495 1495 1495 1500 1501 1501 1502 1502 1486 1483
1527 1525 1524 1522 1521 1520 1519 1517 1516 1515 1514 1514 1514 1514 1513 1513 1516 1513 1513 1514 1514 1514 1518 1495 1496 1497 1499 1500 1498 1495 1499 1504 1505 1509 1505 1506 1496 1495 1497 1497 1497 1512 1493 1492 1493 1505 1525
1527 1526 1524 1523 1521 1520 1518 1516 1515 1514 1513 1513 1512 1512 1513 1513 1513 1513 1513 1515 1513 1513 1539 1492 1492 1492 1495 1498 1493 1493 1497 1501 1505 1505 1504 1511 1501 1500 1502 1497 1493 1505 1491 1497 1495 1506 1511
1528 1526 1525 1523 1521 1519 1517 1515 1514 1512 1512 1511 1511 1511 1512 1512 1512 1514 1514 1513 1515 1525 1528 1490 1488 1492 1495 1496 1494 1494 1499 1501 1502 1503 1500 1498 1492 1491 1491 1490 1490 1490 1495 1498 1501 1510 1544
1530 1527 1525 1523 1521 1519 1517 1515 1513 1511 1510 1509 1509 1510 1510 1511 1512 1513 1513 1514 1525 1530 1475 1488 1491 1489 1494 1497 1495 1494 1499 1504 1513 1521 1521 1502 1494 1485 1486 1495 1492 1497 1510 1550 1551 1549 1546
1531 1529 1526 1524 1521 1519 1516 1514 1511 1509 1508 1508 1508 1508 1508 1509 1511 1513 1513 1516 1530 1487 1474 1469 1478 1486 1496 1490 1492 1491 1498 1509 1500 1503 1514 1521 1519 1479 1481 1492 1502 1503 1508 1550 1552 1556 1537
1532 1530 1527 1524 1522 1519 1516 1513 1510 1508 1507 1507 1507 1507 1506 1507 1510 1514 1515 1524 1502 1482 1470 1471 1476 1489 1493 1485 1485 1489 1494 1499 1492 1492 1515 1512 1507 1476 1476 1479 1489 1500 1517 1498 1521 1514 1534
1533 1530 1528 1525 1522 1519 1515 1512 1509 1507 1506 1506 1506 1506 1504 1506 1509 1513 1515 1515 1495 1477 1475 1475 1487 1479 1490 1484 1489 1488 1490 1481 1484 1479 1484 1492 1518 1487 1483 1480 1484 1491 1490 1525 1528 1543 1548
1533 1530 1528 1525 1522 1519 1515 1512 1508 1506 1505 1505 1506 1506 1500 1504 1509 1512 1517 1504 1489 1481 1480 1484 1485 1488 1482 1480 1480 1487 1486 1476 1474 1480 1481 1488 1502 1507 1487 1492 1496 1498 1505 1502 1512 1523 1547
1533 1531 1528 1525 1522 1519 1515 1511 1508 1506 1505 1506 1507 1505 1502 1505 1509 1506 1505 1495 1485 1482 1481 1484 1483 1482 1482 1478 1480 1479 1482 1482 1473 1477 1492 1492 1499 1518 1502 1480 1477 1479 1491 1497 1533 1529 1521
1533 1531 1528 1525 1522 1519 1515 1511 1508 1506 1506 1507 1506 1502 1501 1503 1508 1502 1494 1489 1486 1482 1482 1483 1485 1479 1478 1483 1491 1480 1477 1480 1480 1484 1494 1494 1511 1532 1519 1494 1481 1488 1484 1482 1488 1498 1520
1533 1531 1528 1525 1522 1518 1515 1511 1508 1506 1505 1507 1507 1499 1498 1500 1496 1495 1493 1485 1483 1481 1483 1483 1481 1482 1482 1484 1482 1487 1483 1481 1483 1486 1489 1492 1504 1518 1535 1521 1503 1504 1490 1482 1490 1520 1519
1533 1531 1528 1525 1522 1518 1515 1511 1508 1505 1505 1507 1504 1495 1497 1496 1493 1491 1488 1483 1477 1482 1483 1484 1486 1486 1489 1493 1491 1491 1484 1480 1482 1485 1488 1493 1513 1506 1503 1498 1496 1495 1492 1489 1496 1493 1509
1533 1530 1527 1524 1521 1518 1515 1511 1508 1506 1504 1506 1504 1501 1495 1489 1483 1485 1483 1481 1480 1476 1481 1485 1489 1487 1486 1493 1498 1501 1494 1494 1494 1491 1490 1489 1509 1500 1507 1497 1497 1500 1492 1491 1490 1487 1490
1532 1529 1527 1524 1521 1518 1515 1512 1508 1506 1505 1504 1502 1500 1499 1490 1485 1483 1482 1481 1481 1479 1479 1479 1485 1487 1491 1495 1495 1495 1492 1491 1491 1495 1498 1497 1505 1514 1524 1506 1505 1517 1499 1494 1492 1486 1488
1532 1530 1527 1524 1521 1518 1515 1512 1510 1507 1506 1506 1506 1504 1502 1497 1491 1486 1483 1481 1482 1485 1486 1485 1487 1489 1494 1494 1494 1492 1490 1490 1490 1491 1492 1500 1504 1509 1525 1515 1540 1504 1486 1484 1487 1484 1481
1532 1530 1528 1525 1522 1519 1516 1513 1511 1509 1508 1508 1506 1506 1506 1502 1497 1490 1485 1481 1483 1487 1488 1490 1491 1493 1492 1494 1499 1503 1502 1497 1494 1491 1491 1491 1499 1515 1527 1527 1509 1497 1487 1488 1491 1493 1480
1532 1530 1528 1525 1522 1520 1517 1515 1512 1510 1509 1509 1508 1507 1506 1505 1498 1497 1492 1488 1488 1489 1489 1489 1490 1493 1495 1497 1504 1515 1522 1508 1507 1494 1484 1485 1488 1502 1512 1523 1529 1499 1484 1481 1477 1504 1485
1532 1530 1528 1526 1523 1520 1518 1515 1513 1511 1509 1508 1508 1507 1506 1505 1500 1498 1497 1497 1496 1494 1492 1490 1488 1493 1496 1502 1511 1515 1513 1496 1510 1507 1502 1497 1496 1505 1505 1510 1500 1488 1484 1482 1501 1509 1487
1531 1529 1527 1525 1524 1521 1519 1516 1514 1512 1510 1509 1509 1509 1507 1504 1498 1498 1498 1498 1498 1497 1499 1496 1494 1493 1496 1504 1506 1506 1504 1498 1496 1490 1491 1499 1503 1506 1502 1507 1517 1488 1486 1497 1493 1488 1487
1528 1527 1526 1524 1523 1521 1519 1517 1514 1512 1511 1509 1508 1506 1505 1504 1497 1496 1495 1496 1497 1498 1499 1496 1496 1494 1494 1498 1501 1499 1502 1497 1500 1508 1486 1503 1496 1503 1498 1502 1490 1490 1491 1490 1489 1488 1487